This is the latest recevied weather packets stored in our database for station/object KV4OP. If no packets are shown the sender has not sent any weather packets the latest 10 day(s).
| Time | Temp. | Humidity | Pressure | Rain* | Wind** | Luminosity | Snow |
|---|---|---|---|---|---|---|---|
| 1777528227 | 22.78° C | 83% | 1013 hPa | 0 mm | - | - | - |
| 1777527926 | 22.78° C | 82% | 1013.1 hPa | 0 mm | - | - | - |
| 1777527624 | 22.78° C | 82% | 1013.2 hPa | 0 mm | - | - | - |
| 1777527323 | 22.78° C | 81% | 1013.4 hPa | 0 mm | - | - | - |
| 1777527022 | 22.78° C | 80% | 1013.6 hPa | 0 mm | - | - | - |
| 1777526721 | 23.33° C | 80% | 1013.6 hPa | 0 mm | - | - | - |
| 1777526420 | 23.33° C | 79% | 1013.7 hPa | 0 mm | - | - | - |
| 1777526123 | 23.33° C | 78% | 1013.9 hPa | 0 mm | - | - | - |
| 1777525820 | 23.89° C | 77% | 1014.1 hPa | 0 mm | - | - | - |
| 1777525518 | 23.89° C | 76% | 1014 hPa | 0 mm | - | - | - |
| 1777525227 | 23.89° C | 76% | 1014 hPa | 0 mm | - | - | - |
| 1777524914 | 24.44° C | 74% | 1014 hPa | 0 mm | - | - | - |
| 1777524613 | 24.44° C | 73% | 1014 hPa | 0 mm | - | - | - |
| 1777524316 | 24.44° C | 73% | 1014 hPa | 0 mm | - | - | - |
| 1777524012 | 25° C | 73% | 1014 hPa | 0 mm | - | - | - |
| 1777523712 | 25° C | 73% | 1014.1 hPa | 0 mm | - | - | - |
| 1777523411 | 25° C | 71% | 1014.1 hPa | 0 mm | - | - | - |
| 1777523110 | 25° C | 71% | 1014 hPa | 0 mm | - | - | - |
| 1777522810 | 25° C | 71% | 1014 hPa | 0 mm | - | - | - |
| 1777522509 | 25° C | 72% | 1014.1 hPa | 0 mm | - | - | - |
| 1777522208 | 25° C | 74% | 1014.1 hPa | 0 mm | - | - | - |
| 1777521907 | 25° C | 75% | 1014.1 hPa | 0 mm | - | - | - |
| 1777521605 | 24.44° C | 75% | 1014.2 hPa | 0 mm | - | - | - |
| 1777521306 | 24.44° C | 75% | 1014.2 hPa | 0 mm | - | - | - |
| 1777521005 | 24.44° C | 75% | 1014.3 hPa | 0 mm | - | - | - |
* Rain latest hour (hover to see other rain measurements)
** Current wind speed in m/s (hover to see current wind gust speed)